Chillicothe, MO

5:57 PM CDT on September 16, 2019 (GMT -0500)
Chillicothe

Weather History for KCDJ - July, 2019

Change the Weather History Date:

Tuesday, July 30, 2019

  Actual Average (KIRK) Record (KIRK)
Temperature  
Mean Temperature 73 °F -  
Max Temperature 84 °F 85 °F 105 °F (1980)
Min Temperature 64 °F 63 °F 47 °F (1971)
Cooling Degree Days 8    
Growing Degree Days 23 (Base 50)    
Moisture  
Dew Point 64 °F    
Average Humidity 74    
Maximum Humidity 97    
Minimum Humidity 51    
Precipitation  
Precipitation 0.00 in - - ()
Sea Level Pressure  
Sea Level Pressure 30.06 in    
Wind  
Wind Speed 2 mph (NNE)    
Max Wind Speed 8 mph    
Max Gust Speed -    
Averages and records for this station are not official NWS values.
T = Trace of Precipitation, MM = Missing Value Source: NWS Daily Summary

Daily Weather History Graph

Daily Weather History Graph

Search for Another Location

Airport or City:

Astronomy

Jul. 30, 2019 Rise Set
Actual Time 6:11 AM CDT 8:29 PM CDT
Civil Twilight 5:40 AM CDT 9:00 PM CDT
Nautical Twilight 5:03 AM CDT 9:37 PM CDT
Astronomical Twilight 4:21 AM CDT 10:18 PM CDT
Moon 4:20 AM CDT (7/30) 7:35 PM CDT (7/30)
Length of Visible Light 15h 19m
Length of Day
14h 18m
Waning Crescent, 3% of the Moon is Illuminated
Jul 30
Waning Crescent
Jul 31
New
Aug 7
First Quarter
Aug 15
Full
Aug 23
Last Quarter

Hourly Weather History & Observations

Time (CDT) Temp. Heat Index Dew Point Humidity Pressure Visibility Wind Dir Wind Speed Gust Speed Precip Events Conditions
12:52 AM 66.9 °F - 66.0 °F 97% 30.01 in - Calm Calm - N/A   Unknown
1:52 AM 66.0 °F - 64.9 °F 96% 30.02 in - Calm Calm - N/A   Unknown
2:52 AM 66.0 °F - 64.9 °F 96% 30.02 in - Calm Calm - N/A   Unknown
3:52 AM 64.9 °F - 64.0 °F 97% 30.01 in - Calm Calm - N/A   Unknown
4:52 AM 66.0 °F - 64.0 °F 93% 30.03 in - Calm Calm - N/A   Unknown
5:52 AM 64.9 °F - 63.0 °F 93% 30.05 in - Calm Calm - N/A   Unknown
6:52 AM 66.0 °F - 63.0 °F 90% 30.06 in - North 3.5 mph - N/A   Unknown
7:52 AM 69.1 °F - 62.1 °F 78% 30.08 in - NNE 5.8 mph - N/A   Unknown
8:52 AM 72.0 °F - 61.0 °F 68% 30.10 in - NNE 8.1 mph - N/A   Unknown
9:52 AM 75.0 °F - 61.0 °F 62% 30.11 in - NNE 6.9 mph - N/A   Unknown
10:52 AM 77.0 °F - 62.1 °F 60% 30.12 in - NE 5.8 mph - N/A   Unknown
11:52 AM 79.0 °F - 64.0 °F 60% 30.11 in - Variable 4.6 mph - N/A   Unknown
12:52 PM 80.1 °F 81.7 °F 64.0 °F 58% 30.10 in - Variable 3.5 mph - N/A   Unknown
1:52 PM 81.0 °F 82.7 °F 64.9 °F 58% 30.09 in - Variable 3.5 mph - N/A   Unknown
2:52 PM 82.0 °F 83.1 °F 63.0 °F 52% 30.07 in - ENE 5.8 mph - N/A   Unknown
3:52 PM 82.9 °F 84.0 °F 63.0 °F 51% 30.06 in - Calm Calm - N/A   Unknown
4:52 PM 82.9 °F 84.0 °F 63.0 °F 51% 30.05 in - Variable 3.5 mph - N/A   Unknown
6:52 PM 79.0 °F - 63.0 °F 58% 30.05 in - Calm Calm - N/A   Unknown
7:52 PM 75.9 °F - 64.9 °F 69% 30.06 in - Calm Calm - N/A   Unknown
8:52 PM 73.9 °F - 64.9 °F 73% 30.07 in - NNE 3.5 mph - N/A   Unknown
9:52 PM 73.0 °F - 64.0 °F 73% 30.06 in - Calm Calm - N/A   Unknown
11:52 PM 69.1 °F - 66.0 °F 90% 30.09 in - Calm Calm - N/A   Unknown